FW7766 Weather Reports


time (UTC)temp
C
wind
direction
speed
KPH
gust
KPH
rain 1hr
cm
rain 24hr
cm
rain mn
cm
humidity
%
barometer
mb
20260504150537 17 270 3.2 4.8 0.00 0.00 0.00 43 1017.7
20260504140536 13 0.0 0.0 0.00 0.00 0.00 40 1017.5
20260504130557 8 0.0 0.0 0.00 0.00 0.00 58 1017.7
20260504110516 3 270 1.6 3.2 0.00 0.00 0.00 73 1017.5
20260504100556 4 0.0 0.0 0.00 0.00 0.00 74 1017.2
20260504081518 5 23 1.6 1.6 0.00 0.00 0.00 72 1017.1
20260504080515 5 0.0 0.0 0.00 0.00 0.00 73 1017.1
20260504050614 7 0.0 0.0 0.00 0.00 0.00 67 1017.4
20260504045610 7 0.0 0.0 0.00 0.00 0.00 60 1017.4
20260504044607 7 0.0 0.0 0.00 0.00 0.00 67 1017.4
20260504043603 7 0 0.0 3.2 0.00 0.00 0.00 67 1017.2
20260504042600 7 0 1.6 1.6 0.00 0.00 0.00 63 1017.3
20260504041556 7 0.0 0.0 0.00 0.00 0.00 57 1017.0
20260504040553 8 0.0 0.0 0.00 0.00 0.00 57 1017.0
20260504035609 8 0.0 0.0 0.00 0.00 0.00 56 1017.1
20260504034544 8 0.0 0.0 0.00 0.00 0.00 57 1017.2
20260504033541 8 45 1.6 1.6 0.00 0.00 0.00 57 1017.2
20260504032538 8 0 0.0 1.6 0.00 0.00 0.00 57 1017.2
20260504031534 8 90 1.6 1.6 0.00 0.00 0.00 55 1017.1
20260504030531 9 0.0 0.0 0.00 0.00 0.00 51 1017.1
20260504025528 9 0.0 0.0 0.00 0.00 0.00 48 1017.1
20260504024524 9 0.0 0.0 0.00 0.00 0.00 50 1017.1
20260504023540 10 90 0.0 1.6 0.00 0.00 0.00 48 1017.1
20260504022517 10 0.0 0.0 0.00 0.00 0.00 45 1017.0
20260504021654 10 0.0 0.0 0.00 0.00 0.00 45 1016.9
20260504020610 10 0.0 0.0 0.00 0.00 0.00 45 1016.8
20260504015627 11 0.0 0.0 0.00 0.00 0.00 45 1016.6
20260504014624 11 0.0 0.0 0.00 0.00 0.00 45 1016.4
20260504013600 11 0.0 0.0 0.00 0.00 0.00 45 1016.3
20260504012557 11 0.0 0.0 0.00 0.00 0.00 45 1016.2
20260504011553 12 0.0 0.0 0.00 0.00 0.00 45 1016.1
20260504010550 12 0.0 0.0 0.00 0.00 0.00 40 1016.0
20260504005546 12 0.0 0.0 0.00 0.00 0.00 40 1016.1
20260504004543 13 0.0 0.0 0.00 0.00 0.00 40 1016.0
20260504003540 13 0.0 0.0 0.00 0.00 0.00 40 1015.8
20260504002536 14 0.0 0.0 0.00 0.00 0.00 40 1015.8
20260504001533 15 0.0 0.0 0.00 0.00 0.00 40 1015.7
20260504000529 15 0.0 0.0 0.00 0.00 0.00 44 1015.7
20260503235526 16 0.0 1.6 0.00 0.00 0.00 44 1015.7
20260503234523 16 0.0 0.0 0.00 0.00 0.00 44 1015.7
20260503233540 16 0.0 0.0 0.00 0.00 0.00 44 1015.7
20260503232516 17 0.0 0.0 0.00 0.00 0.00 44 1015.8
20260503231613 17 0.0 0.0 0.00 0.00 0.00 44 1015.8
20260503230630 17 0.0 1.6 0.00 0.00 0.00 44 1015.7
20260503225626 17 270 0.0 1.6 0.00 0.00 0.00 44 1015.8
20260503224623 17 270 1.6 6.4 0.00 0.00 0.00 44 1015.9
20260503223559 17 0.0 0.0 0.00 0.00 0.00 44 1015.9
20260503222556 18 270 1.6 3.2 0.00 0.00 0.00 44 1015.9
20260503221552 18 270 0.0 1.6 0.00 0.00 0.00 44 1015.9
20260503220549 18 0.0 0.0 0.00 0.00 0.00 44 1016.1
20260503215546 18 0.0 0.0 0.00 0.00 0.00 44 1016.1
20260503214542 18 180 0.0 1.6 0.00 0.00 0.00 44 1016.3
20260503213559 18 180 0.0 3.2 0.00 0.00 0.00 44 1016.5
20260503212535 18 270 0.0 3.2 0.00 0.00 0.00 44 1016.6
20260503211532 18 270 1.6 4.8 0.00 0.00 0.00 44 1016.6
20260503210549 18 270 0.0 3.2 0.00 0.00 0.00 44 1016.7
20260503205525 18 270 3.2 4.8 0.00 0.00 0.00 44 1016.7
20260503204542 18 0.0 0.0 0.00 0.00 0.00 44 1016.8
20260503203519 18 270 4.8 8.0 0.00 0.00 0.00 44 1016.8
20260503202515 18 270 4.8 8.0 0.00 0.00 0.00 44 1017.0
20260503201612 17 0 0.0 3.2 0.00 0.00 0.00 44 1017.1
20260503200609 17 270 1.6 3.2 0.00 0.00 0.00 44 1017.3
20260503195625 17 270 3.2 4.8 0.00 0.00 0.00 44 1017.5
20260503194602 17 270 1.6 1.6 0.00 0.00 0.00 44 1017.7
20260503193559 17 270 1.6 4.8 0.00 0.00 0.00 44 1017.8
20260503192555 17 294 3.2 4.8 0.00 0.00 0.00 44 1017.9
20260503191552 17 270 4.8 9.7 0.00 0.00 0.00 44 1018.0
20260503190548 17 0 3.2 4.8 0.00 0.00 0.00 44 1018.1
20260503185545 17 270 1.6 3.2 0.00 0.00 0.00 44 1018.2
20260503184541 16 279 3.2 6.4 0.00 0.00 0.00 44 1018.4
20260503183557 16 312 1.6 3.2 0.00 0.00 0.00 44 1018.6
20260503182534 15 270 4.8 8.0 0.00 0.00 0.00 44 1018.8
20260503181530 16 270 3.2 6.4 0.00 0.00 0.00 44 1018.8
20260503180528 16 270 6.4 8.0 0.00 0.00 0.00 44 1019.0
20260503175524 16 270 0.0 3.2 0.00 0.00 0.00 44 1019.1
20260503174540 16 270 3.2 8.0 0.00 0.00 0.00 44 1019.2
20260503173517 16 270 3.2 4.8 0.00 0.00 0.00 44 1019.3
20260503172614 15 270 3.2 4.8 0.00 0.00 0.00 44 1019.3
20260503171610 15 270 3.2 4.8 0.00 0.00 0.00 44 1019.4
20260503170607 15 270 4.8 8.0 0.00 0.00 0.00 44 1019.6